This is the latest recevied weather packets stored in our database for station/object NM5PB-13. If no packets are shown the sender has not sent any weather packets the latest 10 day(s).
| Time | Temp. | Humidity | Pressure | Rain* | Wind** | Luminosity | Snow |
|---|---|---|---|---|---|---|---|
| 1777516211 | 7.22° C | 69% | 1018 hPa | 0 mm | - | - | - |
| 1777515306 | 7.78° C | 63% | 1018 hPa | 0 mm | - | - | - |
| 1777514404 | 8.33° C | 69% | 1017 hPa | 0 mm | - | - | - |
| 1777513500 | 9.44° C | 55% | 1017 hPa | 0 mm | - | - | - |
| 1777512594 | 10° C | 51% | 1017 hPa | 0 mm | - | - | - |
| 1777511690 | 11.11° C | 47% | 1017 hPa | 0 mm | - | - | - |
| 1777510787 | 11.67° C | 45% | 1017 hPa | 0 mm | - | - | - |
| 1777509881 | 11.67° C | 45% | 1017 hPa | 0 mm | - | - | - |
| 1777508978 | 12.22° C | 43% | 1016 hPa | 0 mm | - | - | - |
| 1777508075 | 12.78° C | 42% | 1016 hPa | 0 mm | - | - | - |
| 1777507170 | 12.78° C | 41% | 1016 hPa | 0 mm | - | - | - |
| 1777506264 | 13.33° C | 40% | 1016 hPa | 0 mm | - | - | - |
| 1777505361 | 13.33° C | 40% | 1016 hPa | 0 mm | - | - | - |
| 1777504459 | 13.89° C | 40% | 1016 hPa | 0 mm | - | - | - |
| 1777503554 | 13.89° C | 39% | 1016 hPa | 0 mm | - | - | - |
| 1777502650 | 13.33° C | 41% | 1016 hPa | 0 mm | - | - | - |
| 1777501747 | 14.44° C | 38% | 1016 hPa | 0 mm | - | - | - |
| 1777500843 | 13.33° C | 39% | 1016 hPa | 0 mm | - | - | - |
| 1777499939 | 13.89° C | 39% | 1016 hPa | 0 mm | - | - | - |
| 1777499033 | 14.44° C | 39% | 1016 hPa | 0 mm | - | - | - |
| 1777498131 | 14.44° C | 39% | 1016 hPa | 0 mm | - | - | - |
| 1777497228 | 15° C | 39% | 1016 hPa | 0 mm | - | - | - |
| 1777496325 | 15° C | 39% | 1016 hPa | 0 mm | - | - | - |
| 1777495421 | 13.89° C | 39% | 1016 hPa | 0 mm | - | - | - |
| 1777494518 | 14.44° C | 41% | 1016 hPa | 0 mm | - | - | - |
* Rain latest hour (hover to see other rain measurements)
** Current wind speed in m/s (hover to see current wind gust speed)